Flag for Mexico Weather past 2 weeks in Mexico City, Federal District, Mexico

Now
61 °F

Scattered clouds.


Feels Like: 61 °F
Forecast: 53 / 74 °F
Wind: 6 mph from East

Location: Mexico City / Licenci

Current Time: May 23, 2015 at 10:51:06 AM

Latest Report: May 23, 2015 at 9:47 AM


Visibility: 5 mi

Pressure: 30.02 "Hg

Humidity: 72%

Dew point: 52 °F

Location of Mexico CityLocation

Historic Weather in Mexico City — Graph

°F

Mexico City temperature yesterday

Maximum temperature yesterday: 72 °F (at 4:45 PM)
Minimum temperature yesterday: 55 °F (at 3:49 AM)
Average temperature yesterday: 60 °F

Past Weeks' High & Low Weather Summary

 TemperatureHumidityPressure
High81 °F (May 8, 3:49 PM)94% (May 12, 8:53 PM)30.44 "Hg (May 12, 8:53 PM)
Low54 °F (May 19, 6:51 AM)17% (May 9, 5:45 PM)29.58 "Hg (May 10, 3:45 PM)
Average65 °F60%30.19 "Hg
* Reported May 8 9:22 AM — May 23 9:47 AM, Mexico City, Weather by CustomWeather, © 2015

Note: Actual official high and low records may vary slightly from our data, if they occured in-between our weather recording intervals... More about our weather records

Advertising

Mexico City weather history for previous 24 hours

 ConditionsComfort  
Time TempWeatherWind HumidityBarometerVisibility
9:47 AM
Sat, May 23
61 °FScattered clouds.6 mph72%30.02 "Hg5 mi
9:23 AM59 °FScattered clouds.5 mph77%30.44 "Hg5 mi
8:45 AM59 °FPartly sunny.3 mph77%30.43 "Hg5 mi
8:23 AM59 °FSunny.No wind77%30.42 "Hg5 mi
7:22 AM57 °FPassing clouds.3 mph82%30.41 "Hg5 mi
7:04 AM57 °FPassing clouds.5 mph82%30.41 "Hg4 mi
5:46 AM54 °FPassing clouds.2 mph94%30.40 "Hg5 mi
4:41 AM55 °FClear.No wind88%30.40 "Hg5 mi
3:47 AM55 °FClear.No wind88%29.92 "Hg5 mi
2:45 AM55 °FClear.5 mph88%30.40 "Hg4 mi
1:41 AM57 °FPassing clouds.No wind88%30.39 "Hg4 mi
12:49 AM57 °FPassing clouds.No wind88%29.94 "Hg5 mi
11:47 PM
Fri, May 22
57 °FPassing clouds.3 mph82%30.41 "Hg10 mi
9:43 PM57 °FPartly cloudy.5 mph82%29.99 "Hg12 mi
8:46 PM57 °FThunderstorms. More clouds than sun.9 mph88%30.40 "Hg3 mi
7:55 PM59 °FThunderstorms. More clouds than sun.5 mph82%30.40 "Hg3 mi
7:04 PM57 °FStrong thunderstorms. More clouds than sun.15 mph82%29.88 "Hg3 mi
5:45 PM72 °FMore clouds than sun.7 mph41%30.30 "Hg6 mi
4:45 PM72 °FMore clouds than sun.3 mph44%30.31 "Hg6 mi
3:45 PM70 °FBroken clouds.6 mph46%29.80 "Hg6 mi
1:48 PM70 °FBroken clouds.3 mph50%30.39 "Hg5 mi
12:47 PM66 °FBroken clouds.No wind56%29.93 "Hg5 mi
11:45 AM63 °FMore clouds than sun.5 mph64%30.43 "Hg6 mi
10:45 AM61 °FCloudy.6 mph68%30.44 "Hg6 mi
10:22 AM59 °FCloudy.8 mph77%30.44 "Hg6 mi
Weather by CustomWeather, © 2015

See weather overviewHow to use our weather pages